Location: Hilton Head Island
(32.2163°N, 80.7526°W)
Time: 14:06:38
(UTC-04:00)

Vanguard 1 - Pass Details

Date: 20 February 2026
Orbit: 653 x 3818 km, 34.2° (Epoch: 9 March)

Event Time Altitude Azimuth Distance (km) Brightness Sun altitude
Rises 17:36:08 0° 276° (W) 5,042 15.1 6.8°
Reaches altitude 10° 17:38:49 10° 277° (W) 4,367 14.8 6.3°
Maximum altitude 17:52:05 85° 7° (N) 2,914 12.5 3.6°
Drops below altitude 10° 18:14:40 10° 98° (E) 6,881 13.8 -1.1°
Sets 18:20:15 0° 99° (E) 7,954 14.1 -2.2°
